• In Czech Republic
  • List of Countries
  • For 7 days
  • Water Temperature
  • Satellite Maps
  • Weather Map
  • Weather Widgets
  • user-avatar
    Login

    Hourly Weather Barnsley

    Today, 11 December, Monday

    Time Temperature Precipitation Wind Pressure Humidity
    00:00 -4°C° 0 mm 3 mps 727 mmHg 89%
    01:00 -4°C° 0 mm 3 mps 727 mmHg 89%
    02:00 -4°C° 0 mm 3 mps 728 mmHg 89%
    03:00 -4°C° 0 mm 3 mps 728 mmHg 89%
    04:00 -4°C° 0 mm 3 mps 728 mmHg 89%
    05:00 -4°C° 0 mm 3 mps 729 mmHg 88%
    06:00 -4°C° 0 mm 4 mps 728 mmHg 87%
    07:00 -4°C° 0 mm 4 mps 729 mmHg 86%
    08:00 -4°C° 0 mm 4 mps 730 mmHg 85%
    09:00 -4°C° 0 mm 3 mps 730 mmHg 83%
    10:00 -2°C° 0 mm 3 mps 731 mmHg 80%
    11:00 -1°C° 0 mm 3 mps 731 mmHg 77%
    12:00 0°C° 0 mm 3 mps 732 mmHg 74%
    13:00 -1°C° 0 mm 3 mps 732 mmHg 74%
    14:00 -1°C° 0 mm 3 mps 732 mmHg 73%
    15:00 -1°C° 0 mm 3 mps 732 mmHg 73%
    16:00 -2°C° 0 mm 3 mps 733 mmHg 75%
    17:00 -3°C° 0 mm 4 mps 734 mmHg 78%
    18:00 -4°C° 0 mm 4 mps 734 mmHg 80%
    19:00 -3°C° 0 mm 4 mps 735 mmHg 83%
    20:00 -2°C° 0 mm 3 mps 736 mmHg 86%
    21:00 -2°C° 0 mm 3 mps 737 mmHg 89%
    22:00 -2°C° 0 mm 3 mps 738 mmHg 89%
    23:00 -2°C° 0 mm 3 mps 738 mmHg 90%

    Tomorrow, 12 December, Tuesday

    Time Temperature Precipitation Wind Pressure Humidity
    00:00 -2°C° 0 mm 3 mps 739 mmHg 90%
    01:00 -2°C° 0 mm 3 mps 739 mmHg 90%
    02:00 -2°C° 0 mm 2 mps 740 mmHg 89%
    03:00 -3°C° 0 mm 2 mps 741 mmHg 89%
    04:00 -3°C° 0 mm 2 mps 741 mmHg 89%
    05:00 -3°C° 0 mm 2 mps 742 mmHg 88%
    06:00 -3°C° 0 mm 2 mps 742 mmHg 88%
    07:00 -3°C° 0 mm 2 mps 743 mmHg 88%
    08:00 -2°C° 0 mm 2 mps 743 mmHg 89%
    09:00 -2°C° 0 mm 2 mps 743 mmHg 89%
    10:00 -1°C° 0 mm 2 mps 744 mmHg 88%
    11:00 -1°C° 0 mm 3 mps 744 mmHg 86%
    12:00 0°C° 0 mm 3 mps 744 mmHg 85%
    13:00 0°C° 0 mm 3 mps 744 mmHg 87%
    14:00 +1°C° 0 mm 3 mps 743 mmHg 90%
    15:00 +1°C° 0 mm 3 mps 743 mmHg 92%
    16:00 0°C° 0.1 mm 4 mps 743 mmHg 92%
    17:00 0°C° 0.1 mm 4 mps 743 mmHg 92%
    18:00 0°C° 0.1 mm 4 mps 742 mmHg 93%
    19:00 +1°C° 0.3 mm 5 mps 741 mmHg 93%
    20:00 +1°C° 0.3 mm 6 mps 741 mmHg 93%
    21:00 0°C° 0.3 mm 7 mps 740 mmHg 94%
    22:00 +2°C° 0.1 mm 6 mps 740 mmHg 94%
    23:00 +2°C° 0.1 mm 5 mps 740 mmHg 95%

    Day after tomorrow, 13 December, Wednesday

    Time Temperature Precipitation Wind Pressure Humidity
    00:00 +3°C° 0.1 mm 4 mps 739 mmHg 95%
    01:00 +3°C° 0 mm 4 mps 739 mmHg 94%
    02:00 +1°C° 0 mm 4 mps 739 mmHg 93%
    03:00 +2°C° 0 mm 3 mps 739 mmHg 91%
    04:00 +1°C° 0 mm 4 mps 739 mmHg 91%
    05:00 +1°C° 0 mm 4 mps 739 mmHg 91%
    06:00 +1°C° 0 mm 4 mps 739 mmHg 91%
    07:00 +1°C° 0.1 mm 4 mps 738 mmHg 92%
    08:00 +2°C° 0.1 mm 5 mps 738 mmHg 92%
    09:00 +2°C° 0.1 mm 5 mps 738 mmHg 92%
    10:00 +2°C° 0.3 mm 5 mps 737 mmHg 92%
    11:00 +2°C° 0.3 mm 5 mps 736 mmHg 91%
    12:00 +3°C° 0.3 mm 5 mps 736 mmHg 91%
    13:00 +3°C° 0.2 mm 6 mps 736 mmHg 86%
    14:00 +2°C° 0.2 mm 6 mps 735 mmHg 81%
    15:00 +2°C° 0.2 mm 6 mps 735 mmHg 76%
    16:00 +2°C° 0 mm 6 mps 735 mmHg 77%
    17:00 +1°C° 0 mm 5 mps 735 mmHg 77%
    18:00 0°C° 0 mm 5 mps 734 mmHg 77%
    19:00 +1°C° 0.2 mm 6 mps 733 mmHg 78%
    20:00 0°C° 0.2 mm 7 mps 732 mmHg 80%
    21:00 0°C° 0.2 mm 7 mps 731 mmHg 81%
    22:00 0°C° 0.7 mm 7 mps 731 mmHg 77%
    23:00 0°C° 0.7 mm 8 mps 731 mmHg 73%

    14 December, Thursday

    Time Temperature Precipitation Wind Pressure Humidity
    00:00 -1°C° 0.7 mm 8 mps 730 mmHg 68%
    01:00 -1°C° 0.2 mm 7 mps 731 mmHg 70%
    02:00 -1°C° 0.2 mm 7 mps 731 mmHg 72%
    03:00 -1°C° 0.2 mm 7 mps 731 mmHg 73%
    04:00 -1°C° 0.2 mm 6 mps 731 mmHg 74%
    05:00 -1°C° 0.2 mm 6 mps 731 mmHg 76%
    06:00 -1°C° 0.2 mm 6 mps 731 mmHg 77%
    07:00 -1°C° 0.1 mm 6 mps 731 mmHg 78%
    08:00 0°C° 0.1 mm 5 mps 731 mmHg 79%
    09:00 0°C° 0.1 mm 5 mps 731 mmHg 80%
    10:00 0°C° 0 mm 5 mps 731 mmHg 78%
    11:00 +1°C° 0 mm 6 mps 731 mmHg 77%
    12:00 +2°C° 0 mm 6 mps 731 mmHg 76%
    13:00 +1°C° 0 mm 6 mps 730 mmHg 77%
    14:00 +1°C° 0 mm 5 mps 730 mmHg 78%
    15:00 +1°C° 0 mm 5 mps 729 mmHg 78%
    16:00 +1°C° 0.1 mm 5 mps 729 mmHg 80%
    17:00 +1°C° 0.1 mm 5 mps 728 mmHg 81%
    18:00 +1°C° 0.1 mm 5 mps 728 mmHg 82%
    19:00 0°C° 0.2 mm 4 mps 728 mmHg 84%
    20:00 0°C° 0.2 mm 4 mps 729 mmHg 86%
    21:00 +1°C° 0.2 mm 3 mps 729 mmHg 87%
    22:00 0°C° 0.1 mm 4 mps 730 mmHg 86%
    23:00 0°C° 0.1 mm 5 mps 731 mmHg 86%

    15 December, Friday

    Time Temperature Precipitation Wind Pressure Humidity
    00:00 -1°C° 0.1 mm 6 mps 732 mmHg 85%
    01:00 -1°C° 0 mm 6 mps 733 mmHg 82%
    02:00 -2°C° 0 mm 6 mps 734 mmHg 79%
    03:00 -2°C° 0 mm 5 mps 735 mmHg 75%
    04:00 -1°C° 0 mm 5 mps 736 mmHg 76%
    05:00 -2°C° 0 mm 6 mps 736 mmHg 76%
    06:00 -2°C° 0 mm 6 mps 737 mmHg 77%
    07:00 -1°C° 0 mm 6 mps 738 mmHg 77%
    08:00 -1°C° 0 mm 6 mps 738 mmHg 77%
    09:00 -1°C° 0 mm 7 mps 739 mmHg 78%
    10:00 -1°C° 0 mm 7 mps 740 mmHg 75%
    11:00 +1°C° 0 mm 6 mps 741 mmHg 72%
    12:00 +1°C° 0 mm 6 mps 742 mmHg 70%
    13:00 +1°C° 0 mm 6 mps 742 mmHg 70%
    14:00 0°C° 0 mm 5 mps 743 mmHg 71%
    15:00 0°C° 0 mm 5 mps 743 mmHg 72%
    16:00 0°C° 0 mm 5 mps 744 mmHg 73%
    17:00 -1°C° 0 mm 4 mps 744 mmHg 75%
    18:00 -1°C° 0 mm 4 mps 745 mmHg 76%
    19:00 -1°C° 0 mm 4 mps 745 mmHg 77%
    20:00 -1°C° 0 mm 4 mps 746 mmHg 78%
    21:00 -1°C° 0 mm 3 mps 746 mmHg 78%
    22:00 -1°C° 0 mm 3 mps 747 mmHg 79%
    23:00 -1°C° 0 mm 3 mps 747 mmHg 79%

    16 December, Saturday

    Time Temperature Precipitation Wind Pressure Humidity
    00:00 -1°C° 0 mm 3 mps 747 mmHg 79%
    01:00 -1°C° 0 mm 3 mps 748 mmHg 78%
    02:00 -1°C° 0 mm 3 mps 748 mmHg 77%
    03:00 -1°C° 0 mm 3 mps 748 mmHg 76%
    04:00 -1°C° 0 mm 3 mps 749 mmHg 75%
    05:00 -1°C° 0 mm 3 mps 749 mmHg 75%
    06:00 -1°C° 0 mm 3 mps 749 mmHg 75%
    07:00 -1°C° 0 mm 3 mps 749 mmHg 75%
    08:00 -1°C° 0 mm 3 mps 749 mmHg 76%
    09:00 -1°C° 0 mm 2 mps 750 mmHg 77%
    10:00 0°C° 0 mm 3 mps 750 mmHg 77%
    11:00 0°C° 0 mm 4 mps 749 mmHg 76%
    12:00 +1°C° 0 mm 4 mps 749 mmHg 76%
    13:00 +1°C° 0 mm 4 mps 749 mmHg 77%
    14:00 +1°C° 0 mm 4 mps 748 mmHg 78%
    15:00 +1°C° 0 mm 4 mps 748 mmHg 79%
    16:00 +1°C° 0.1 mm 4 mps 747 mmHg 82%
    17:00 +1°C° 0.1 mm 4 mps 747 mmHg 84%
    18:00 +1°C° 0.1 mm 4 mps 747 mmHg 87%
    19:00 +1°C° 0.1 mm 4 mps 746 mmHg 89%
    20:00 +1°C° 0.1 mm 4 mps 746 mmHg 92%
    21:00 +1°C° 0.1 mm 3 mps 745 mmHg 94%
    22:00 +2°C° 0.2 mm 3 mps 745 mmHg 95%
    23:00 +3°C° 0.2 mm 2 mps 745 mmHg 95%
    Show more